Regional Weather Roundup
Issued by NWS Midland/Odessa, TX

Skip options and go directly to product.
Home | Oldest Version | Previous Version | Current Version | All | Graphics & Text | Save Text | Print | Product List | Glossary On

Skip product version selection by date and time.   
715
ASUS44 KMAF 030401
RWRMAF
MIDLAND AREA WEATHER ROUNDUP
NATIONAL WEATHER SERVICE MIDLAND TX
1100 PM CDT WED SEP 02 2015

...IN SOUTHWEST TEXAS AND SOUTHEAST NEW MEXICO...

CITY           SKY/WX    TMP DP  RH WIND       PRES   REMARKS
ALPINE         CLEAR     74  51  45 SW7       30.17R
ANDREWS        FAIR      76  56  49 S7        30.04R
ARTESIA        PTCLDY    81  50  34 S9        30.03R
BIG SPRING     MOCLDY    80  51  36 E10       30.03R
CARLSBAD       PTCLDY    79  50  36 S7        30.01R
DRYDEN           N/A     79  59  50 W6        29.99R
FORT STOCKTON  CLEAR     80  54  40 SE10      30.03R
GUAD PASS      CLEAR     75  47  36 NE22      30.18R
HOBBS          CLOUDY    75  54  46 SE6       30.07R
MARFA          CLEAR     72  52  49 SE7       30.16R
MIDLAND AIRPK  MOCLDY    85  52  31 S7        30.02R
MIDLAND INTL   MOCLDY    81  55  40 SE7       30.02R
ODESSA         MOCLDY    83  54  36 S8        30.04R
PECOS          PTCLDY    83  52  33 E13       29.98R
PRESIDIO       NOT AVBL
SEMINOLE       MOCLDY    76  52  43 S3        30.06R
SNYDER         CLEAR     80  55  41 SE8       30.01R
WINK           CLEAR     81  54  39 SE8       29.99R
$$
...OTHER STATIONS IN TEXAS...

CITY           SKY/WX    TMP DP  RH WIND       PRES   REMARKS
ABILENE        CLEAR     79  59  50 SE13      29.99S
AMARILLO       CLEAR     79  55  43 S15       30.03R
AUSTIN         PTCLDY    78  69  73 SE6       29.96S
BROWNSVILLE    CLEAR     79  77  94 SE7       29.92R
CORPUS CHRISTI PTCLDY    81  74  79 SE8       29.93R
DALLAS FTW     CLEAR     84  64  50 SE8       29.96S
DEL RIO        CLEAR     83  61  47 E7        29.92R
EL PASO        CLOUDY    85  48  27 N13       30.03R
HOUSTON INT    PTCLDY    75  73  93 VRB3      29.95F
LUBBOCK        MOCLDY    79  54  41 S9        30.04R
SAN ANGELO     CLEAR     81  55  40 SE8       29.97R
SAN ANTONIO    CLEAR     81  68  64 SE13      29.97R
WACO           CLEAR     83  67  58 S12       29.96S
WICHITA FALLS  NOT AVBL
$$
...OTHER LOCATIONS IN NEW MEXICO...

CITY           SKY/WX    TMP DP  RH WIND       PRES   REMARKS
ALAMAGORDO     LGT RAIN  79  54  41 NW18      30.11R
ALBUQUERQUE    MOCLDY    73  49  42 W5        30.21R
CANNON AFB     PTCLDY    72  51  47 SE7       30.07R
CLOVIS         PTCLDY    73  50  43 S10       30.09R
HOLLOMAN AFB   MOCLDY    82  50  33 N13       30.11R
ROSWELL        PTCLDY    83  49  30 S12       30.02R
RUIDOSO        MOCLDY    66  48  52 NW12G18   30.31R
SANTA FE       MOCLDY    69  41  36 N3        30.22R
TRUTH OR CONSE RAIN      65  57  75 W21G28    30.21R
TUCUMCARI      PTCLDY    82  49  31 S13       30.01R
$$

USA.gov is the U.S. government's official web portal to all federal, state and local government web resources and services.